[[{"header":{"parameterUnit":"m.s-1","parameterCategory":1,"la1":30.2991,"la2":30.254,"lo1":-89.0895,"lo2":-89.0444,"dy":0.0017,"dx":0.0017,"nx":28,"ny":28,"refTime":"2025-06-02T21:00:00:Z","depth":0,"parameterNumber":2,"parameterNumberName":"U-component_of_WINDS"},"data":[0,0,0,0,0,0,0,0,0,0,0,0,0,0,0,0,0,0,0,0,0,0,0,0,0,0,0,0,0,0,0,0,0,0,0,0,0,0,0,0,0,0,0,0,0,0,0,0,0,0,0,0,0,0,0,0,0,0,-0.293,-0.2929,0,-0.2833,-0.2832,-0.2831,-0.2753,-0.2752,-0.2751,-0.275,-0.2653,-0.2651,-0.2649,0,0,0,0,0,0,0,0,0,0,0,0,0,-0.3049,-0.3047,-0.293,-0.2929,-0.2928,-0.2834,-0.2832,-0.2831,-0.2753,-0.2752,-0.2751,-0.275,-0.2653,-0.2651,-0.2649,0,0,0,0,0,0,0,0,0,0,0,0,0,-0.2979,-0.3046,-0.293,-0.2877,-0.2872,-0.2834,-0.2832,-0.2831,-0.2753,-0.2752,-0.275,-0.2749,-0.2654,-0.2651,-0.2649,-0.2656,0,0,-0.264,-0.2639,0,0,0,0,0,0,0,0,-0.2983,-0.2975,-0.2886,-0.2881,-0.2874,-0.2804,-0.2838,-0.2772,-0.2753,-0.2798,-0.275,-0.2749,-0.2704,-0.2697,-0.2682,-0.2652,-0.2648,-0.264,-0.2638,-0.2637,-0.2636,0,0,0,0,0,0,0,-0.2988,-0.2979,-0.2892,-0.2885,-0.2878,-0.2859,-0.2848,-0.2825,-0.2759,-0.2794,-0.2788,-0.2778,-0.2701,-0.2685,-0.2679,-0.2646,-0.264,-0.2638,-0.2636,-0.2635,-0.2617,-0.2619,0,0,0,0,0,0,-0.3001,-0.2983,-0.2895,-0.2889,-0.2927,-0.2858,-0.2845,-0.2828,-0.2759,-0.2748,-0.2779,-0.2774,-0.269,-0.2682,-0.2675,-0.2679,-0.2637,-0.2635,-0.2633,-0.2616,-0.2618,-0.2619,0,0,0,0,0,0,-0.3004,-0.2994,-0.2899,-0.2934,-0.2921,-0.2857,-0.2838,-0.2826,-0.281,-0.2748,-0.2736,-0.2774,-0.2689,-0.2679,-0.2661,-0.2675,-0.2633,-0.2631,-0.2615,-0.2617,-0.2618,-0.2688,0,0,0,0,0,0,-0.3007,-0.2995,-0.2997,-0.2935,-0.2919,-0.2887,-0.2839,-0.2825,-0.2806,-0.2799,-0.274,-0.273,-0.2687,-0.2666,-0.2659,-0.267,-0.2629,-0.2613,-0.2616,-0.2618,-0.2684,-0.2692,-0.2699,0,0,0,0,0,-0.3012,-0.3021,-0.2998,-0.2988,-0.292,-0.2887,-0.2878,-0.2829,-0.2807,-0.2809,-0.2768,-0.2731,-0.2675,-0.2665,-0.2656,-0.2667,-0.2612,-0.2615,-0.2618,-0.2681,-0.2691,-0.2699,0,0,0,0,0,0,-0.3087,-0.3012,-0.2985,-0.2974,-0.2938,-0.2874,-0.2875,-0.284,-0.281,-0.2805,-0.2745,-0.2732,-0.2721,-0.2692,-0.2683,-0.2671,-0.2639,-0.264,-0.269,-0.2698,-0.2705,-0.2713,-0.2627,0,0,0,0,0,-0.3103,-0.3082,-0.3017,-0.3014,-0.2997,-0.2939,-0.2923,-0.2888,-0.2848,-0.2832,-0.2791,-0.2754,-0.2727,-0.2711,-0.2684,-0.268,-0.2666,-0.2683,-0.269,-0.2697,-0.2698,-0.2694,-0.2701,-0.2628,-0.2628,-0.2628,0,0,-0.3134,-0.309,-0.3081,-0.3028,-0.2995,-0.2976,-0.2927,-0.2908,-0.2893,-0.2829,-0.281,-0.2778,-0.2733,-0.2723,-0.2716,-0.2698,-0.2715,-0.27,-0.2705,-0.2703,-0.2697,-0.2704,-0.271,-0.263,-0.2629,-0.2629,0,0,-0.3181,-0.3146,-0.3139,-0.3107,-0.3059,-0.302,-0.3019,-0.296,-0.2936,-0.2916,-0.2868,-0.2849,-0.2805,-0.2775,-0.2754,-0.279,-0.2755,-0.2782,-0.282,-0.2816,-0.2822,-0.2827,-0.284,-0.2845,-0.2784,-0.2784,-0.2785,0,-0.3226,-0.3194,-0.314,-0.3124,-0.3102,-0.3043,-0.3036,-0.3008,-0.2954,-0.294,-0.2921,-0.2864,-0.283,-0.2811,-0.282,-0.2805,-0.2801,-0.2789,-0.2826,-0.283,-0.2834,-0.2845,-0.285,-0.2788,-0.2788,-0.2787,-0.2787,0,-0.3252,-0.323,-0.3231,-0.3179,-0.3157,-0.3146,-0.309,-0.3075,-0.3042,-0.3006,-0.2986,-0.2942,-0.2905,-0.2898,-0.2865,-0.2875,-0.2865,-0.2837,-0.2803,-0.2845,-0.2855,-0.2859,-0.2793,-0.2792,-0.2791,-0.279,0,0,-0.3344,-0.3262,-0.3263,-0.3238,-0.318,-0.3162,-0.3149,-0.3111,-0.3099,-0.3063,-0.305,-0.3015,-0.2988,-0.2964,-0.2928,-0.2925,-0.2956,-0.2897,-0.2895,-0.2909,-0.2963,-0.2985,-0.2991,-0.2932,-0.2933,-0.2933,-0.2967,0,-0.3381,-0.3352,-0.3303,-0.329,-0.3269,-0.3213,-0.3201,-0.3165,-0.3131,-0.3109,-0.3071,-0.3046,-0.3013,-0.2998,-0.2993,-0.2953,-0.2966,-0.295,-0.292,-0.292,-0.2933,-0.2996,-0.3018,-0.3052,-0.297,-0.2971,-0.2971,0,-0.3421,-0.3388,-0.3373,-0.3316,-0.3305,-0.3295,-0.3257,-0.3236,-0.3194,-0.3169,-0.3143,-0.3103,-0.3086,-0.3056,-0.3031,-0.3022,-0.3007,-0.2985,-0.2985,-0.2981,-0.2948,-0.2993,-0.3062,-0.3067,-0.2977,-0.2976,-0.2976,0,-0.3489,-0.3441,-0.3425,-0.3406,-0.3339,-0.3333,-0.3306,-0.3262,-0.3242,-0.3209,-0.3196,-0.3162,-0.3143,-0.3118,-0.307,-0.3053,-0.3051,-0.3017,-0.3031,-0.3032,-0.3033,-0.3033,-0.3101,-0.3024,-0.3024,-0.3024,-0.3023,0,-0.3536,-0.3529,-0.3455,-0.3445,-0.3436,-0.338,-0.3372,-0.3339,-0.3301,-0.3284,-0.3234,-0.322,-0.3158,-0.3136,-0.3099,-0.3085,-0.3077,-0.3057,-0.3047,-0.3061,-0.3064,-0.305,-0.3047,-0.3025,-0.3024,-0.3024,-0.3024,0,-0.3611,-0.3561,-0.354,-0.3478,-0.3463,-0.3458,-0.3406,-0.3395,-0.3358,-0.3337,-0.333,-0.3272,-0.3244,-0.3194,-0.3152,-0.3127,-0.312,-0.3103,-0.3135,-0.3128,-0.3145,-0.3144,-0.3206,-0.3211,-0.3131,-0.3132,-0.3133,0,-0.3644,-0.3637,-0.3574,-0.3559,-0.3533,-0.351,-0.3489,-0.3434,-0.3416,-0.3367,-0.3362,-0.333,-0.3301,-0.326,-0.3214,-0.3182,-0.3164,-0.3188,-0.3159,-0.3174,-0.3164,-0.3165,-0.3165,-0.3195,-0.3196,-0.3197,-0.3197,0,-0.3708,-0.3684,-0.3656,-0.362,-0.3597,-0.3566,-0.3533,-0.3523,-0.3461,-0.3443,-0.3413,-0.3391,-0.3348,-0.3317,-0.3279,-0.325,-0.3214,-0.3207,-0.3208,-0.3223,-0.3241,-0.3231,-0.3152,-0.3206,-0.3205,-0.3204,-0.3204,-0.3204,-0.3763,-0.3754,-0.3708,-0.3679,-0.3648,-0.3618,-0.3604,-0.3565,-0.354,-0.35,-0.3469,-0.3442,-0.34,-0.3344,-0.3318,-0.3297,-0.328,-0.3282,-0.3282,-0.3284,-0.3289,-0.3245,-0.329,-0.3289,-0.3289,-0.3289,-0.3289,0,-0.3824,-0.3792,-0.3766,-0.372,-0.3697,-0.3664,-0.3626,-0.3609,-0.3586,-0.3549,-0.3522,-0.3488,-0.3458,-0.3411,-0.3377,-0.3369,-0.3351,-0.3362,-0.3362,-0.3356,-0.3307,-0.3309,-0.3377,-0.3377,-0.3377,-0.3377,-0.3377,-0.3377,-0.3853,-0.3836,-0.3807,-0.3774,-0.3742,-0.3714,-0.3695,-0.3667,-0.3638,-0.3602,-0.3577,-0.3546,-0.3505,-0.3467,-0.3438,-0.3425,-0.3415,-0.3431,-0.3413,-0.3368,-0.3359,-0.3352,-0.3353,-0.3429,-0.343,-0.3464,-0.3464,-0.3464]},{"header":{"parameterUnit":"m.s-1","parameterCategory":1,"la1":30.2991,"la2":30.254,"lo1":-89.0895,"lo2":-89.0444,"dy":0.0017,"dx":0.0017,"nx":28,"ny":28,"refTime":"2025-06-02T21:00:00:Z","depth":0,"parameterNumber":3,"parameterNumberName":"V-component_of_WINDS"},"data":[0,0,0,0,0,0,0,0,0,0,0,0,0,0,0,0,0,0,0,0,0,0,0,0,0,0,0,0,0,0,0,0,0,0,0,0,0,0,0,0,0,0,0,0,0,0,0,0,0,0,0,0,0,0,0,0,0,0,0.8053,0.8054,0,0.8131,0.8132,0.8133,0.8183,0.8184,0.8184,0.8184,0.8259,0.8261,0.8263,0,0,0,0,0,0,0,0,0,0,0,0,0,0.7944,0.7946,0.8053,0.8054,0.8055,0.8131,0.8132,0.8133,0.8183,0.8184,0.8184,0.8185,0.8259,0.8261,0.8263,0,0,0,0,0,0,0,0,0,0,0,0,0,0.8004,0.7947,0.8053,0.809,0.8094,0.813,0.8132,0.8133,0.8183,0.8184,0.8184,0.8185,0.8258,0.8261,0.8263,0.8268,0,0,0.8271,0.8272,0,0,0,0,0,0,0,0,0.8,0.8008,0.8083,0.8087,0.8092,0.8148,0.8121,0.8178,0.8183,0.8149,0.8184,0.8185,0.8222,0.8227,0.824,0.8272,0.8275,0.8271,0.8273,0.8274,0.8274,0,0,0,0,0,0,0,0.7996,0.8005,0.8084,0.8084,0.809,0.8101,0.811,0.8132,0.8181,0.8152,0.8156,0.8165,0.8224,0.8238,0.8243,0.8276,0.8271,0.8273,0.8275,0.8276,0.8315,0.8315,0,0,0,0,0,0,0.7987,0.8001,0.8081,0.8086,0.8047,0.8102,0.8112,0.8129,0.8181,0.819,0.8164,0.8167,0.8233,0.824,0.8245,0.8255,0.8274,0.8276,0.8277,0.8316,0.8315,0.8314,0,0,0,0,0,0,0.7984,0.7994,0.8078,0.8045,0.8056,0.8104,0.8122,0.8131,0.8145,0.8191,0.8199,0.817,0.8234,0.8242,0.8263,0.8258,0.8277,0.8279,0.8316,0.8315,0.8315,0.8274,0,0,0,0,0,0,0.7981,0.7992,0.7996,0.8044,0.8058,0.8095,0.8122,0.8132,0.8149,0.8154,0.8198,0.8206,0.8235,0.8258,0.8265,0.8262,0.8281,0.8317,0.8316,0.8315,0.8276,0.8272,0.8269,0,0,0,0,0,0.7977,0.7981,0.7996,0.8005,0.8064,0.8095,0.8103,0.8138,0.8149,0.8152,0.8182,0.8204,0.8258,0.826,0.8268,0.8266,0.8317,0.8316,0.8315,0.8278,0.8273,0.8269,0,0,0,0,0,0,0.7929,0.7988,0.8005,0.8025,0.8055,0.8104,0.8109,0.8131,0.8158,0.816,0.8201,0.821,0.8227,0.8248,0.825,0.8273,0.829,0.829,0.8259,0.8255,0.8251,0.8246,0.8283,0,0,0,0,0,0.7921,0.7943,0.7993,0.8005,0.8019,0.8061,0.8076,0.8101,0.8133,0.8145,0.8176,0.8205,0.8228,0.8242,0.8266,0.8279,0.8289,0.8281,0.8278,0.8275,0.8275,0.8283,0.828,0.8311,0.8311,0.8311,0,0,0.7904,0.7939,0.795,0.7996,0.8022,0.8043,0.8072,0.8092,0.8108,0.8148,0.817,0.8193,0.8228,0.8244,0.8253,0.8263,0.8268,0.8273,0.827,0.8272,0.8281,0.8278,0.8276,0.831,0.831,0.8311,0,0,0.7885,0.7914,0.7928,0.7953,0.7992,0.802,0.8023,0.8069,0.8086,0.8109,0.814,0.8157,0.8197,0.822,0.8237,0.8226,0.8247,0.8232,0.8213,0.8221,0.8218,0.8216,0.8212,0.821,0.8232,0.8232,0.8231,0,0.7859,0.7893,0.7931,0.7951,0.797,0.8008,0.8021,0.8044,0.8088,0.8099,0.811,0.816,0.8186,0.8208,0.8206,0.8218,0.8222,0.8228,0.8216,0.8214,0.8213,0.8209,0.8208,0.8229,0.823,0.823,0.823,0,0.7859,0.7882,0.7888,0.7932,0.7951,0.7967,0.8006,0.8021,0.8043,0.8069,0.8091,0.8124,0.8155,0.8162,0.8183,0.8187,0.8192,0.8208,0.8226,0.8207,0.8205,0.8203,0.8227,0.8227,0.8228,0.8228,0,0,0.7813,0.7877,0.7879,0.7899,0.7945,0.7963,0.7979,0.8012,0.8023,0.8052,0.8067,0.8099,0.8114,0.8133,0.8157,0.8164,0.8152,0.8179,0.818,0.8173,0.8158,0.8147,0.8144,0.8166,0.8166,0.8166,0.8156,0,0.7801,0.7836,0.787,0.7892,0.7913,0.7949,0.7964,0.7993,0.8017,0.8037,0.8064,0.8086,0.8104,0.8116,0.8124,0.8152,0.815,0.8153,0.818,0.818,0.8171,0.8143,0.8131,0.8119,0.8155,0.8155,0.8155,0,0.7792,0.7821,0.7845,0.7889,0.7899,0.7912,0.7944,0.7963,0.7995,0.8012,0.8034,0.8059,0.8077,0.8092,0.8117,0.8119,0.8131,0.8146,0.8147,0.8151,0.8167,0.8147,0.8117,0.8115,0.8153,0.8153,0.8154,0,0.7757,0.7801,0.7822,0.7837,0.7889,0.7897,0.7918,0.7951,0.7968,0.7995,0.8006,0.8034,0.8049,0.8069,0.8101,0.8109,0.8122,0.814,0.8137,0.8136,0.8139,0.8138,0.811,0.8145,0.8145,0.8145,0.8145,0,0.774,0.7754,0.7806,0.7819,0.7835,0.7873,0.7887,0.7911,0.794,0.7957,0.7989,0.8003,0.8044,0.8063,0.8088,0.8105,0.8111,0.8125,0.8131,0.8122,0.8121,0.8132,0.8134,0.8145,0.8145,0.8145,0.8145,0,0.7704,0.774,0.7765,0.7811,0.7823,0.7832,0.7871,0.7884,0.791,0.7931,0.7938,0.7978,0.8002,0.8035,0.8069,0.8086,0.8099,0.8109,0.8089,0.8093,0.8088,0.8088,0.8066,0.8065,0.81,0.81,0.81,0,0.7692,0.7703,0.7751,0.7765,0.7786,0.7808,0.7826,0.7863,0.788,0.7917,0.7925,0.7952,0.7975,0.8011,0.8043,0.8068,0.808,0.807,0.8084,0.8074,0.808,0.8079,0.808,0.8067,0.8067,0.8066,0.8066,0,0.7666,0.7683,0.7708,0.7739,0.7759,0.7785,0.7812,0.7821,0.7863,0.788,0.7906,0.7924,0.7959,0.7985,0.8015,0.8035,0.8057,0.8061,0.8062,0.8054,0.8042,0.8048,0.808,0.8062,0.8062,0.8063,0.8063,0.8063,0.7642,0.7654,0.7689,0.7716,0.774,0.7764,0.7779,0.7807,0.7829,0.7862,0.7882,0.7906,0.7937,0.798,0.7999,0.8017,0.8027,0.8027,0.8028,0.8028,0.8025,0.8038,0.8023,0.8023,0.8023,0.8023,0.8023,0,0.7618,0.7643,0.7667,0.7704,0.7725,0.7745,0.7775,0.779,0.7812,0.784,0.7863,0.7892,0.7916,0.7949,0.7976,0.7985,0.7995,0.7991,0.7991,0.7995,0.8015,0.8012,0.7981,0.7981,0.7981,0.7981,0.7981,0.7981,0.7609,0.763,0.7651,0.7684,0.7708,0.7734,0.7749,0.7771,0.7794,0.7825,0.7847,0.7868,0.7898,0.7927,0.795,0.7959,0.7967,0.7959,0.7971,0.799,0.7993,0.7997,0.7995,0.7961,0.7961,0.795,0.795,0.795]}]]